Regional Weather Roundup
Issued by NWS

Home | Current Version | Previous Version | Graphics & Text | Print | Product List | Glossary On
Versions: 1 2 3 4 5 6 7 8 9 10 11 12 13 14 15 16 17 18 19 20 21 22 23 24 25 26 27 28 29 30 31 32 33 34 35 36 37 38 39 40 41 42 43 44 45 46 47 48 49 50
000
ASUS43 KIND 202359
RWRIN

WEATHER ROUNDUP FOR INDIANA
NATIONAL WEATHER SERVICE INDIANAPOLIS IN
800 PM EDT FRI APR 20 2018

NOTE: "FAIR" INDICATES FEW OR NO CLOUDS BELOW 12,000 FEET WITH NO
SIGNIFICANT WEATHER AND/OR OBSTRUCTIONS TO VISIBILITY.

* - STATION DOES NOT REPORT WEATHER SUCH AS PRECIPITATION OR FOG.

+ - STATION NOT QUALITY CONTROLLED BY THE NATIONAL WEATHER SERVICE.
    USE DATA WITH CAUTION...ESPECIALLY DEWPOINT AND RELATIVE
    HUMIDITY OBSERVATIONS.

INZ001>003-010>013-019-020-210100-
NORTHWEST INDIANA

CITY           SKY/WX    TMP DP  RH WIND       PRES   REMARKS
GARY /AIRPORT/ PTCLDY    52   9  17 E9        30.44F
KNOX *+        FAIR      52  19  28 N10       30.42F
MONTICELLO +   FAIR      59  13  16 CALM      30.40F
6HR MIN TEMP:  55; 6HR MAX TEMP:  61;

RENSSELAER +   FAIR      55  -9   7 N12       30.41S

$$

LMZ046-743>745-210100-
SOUTHERN LAKE MICHIGAN

STATION/POSITION TIME  TEMP    WIND        PRES    WAVE
                       AIR SEA DIR/SP/G            HT
                 (UTC) (F)     (DEG/KT/KT) (MB)    (FT)
BURNS HARBOR     2303   45      70/  6/  8 1031.5
MICHIGAN CITY    2330   42      50/  7/  7   N/A

$$

INZ004-005-014>016-021>024-210100-
NORTH CENTRAL INDIANA

CITY           SKY/WX    TMP DP  RH WIND       PRES   REMARKS
GOSHEN         FAIR      56  23  27 E5        30.40F
6HR MIN TEMP:  54; 6HR MAX TEMP:  60;

PERU/GRISSOM   PTCLDY    55  19  24 NE5       30.42S
6HR MIN TEMP:  58; 6HR MAX TEMP:  60;

ROCHESTER +    FAIR      59  19  21 NE3       30.41F
SOUTH BEND     FAIR      49  18  29 N10       30.44F
6HR MIN TEMP:  49; 6HR MAX TEMP:  58;

WARSAW +       FAIR      54  23  30 SE3       30.41F

$$

INZ006>009-017-018-025>027-210100-
NORTHEAST INDIANA

CITY           SKY/WX    TMP DP  RH WIND       PRES   REMARKS
ANGOLA *+      FAIR      55  18  22 CALM      30.41F
FORT WAYNE     FAIR      58  20  22 CALM      30.42F
6HR MIN TEMP:  55; 6HR MAX TEMP:  61;


$$

INZ028-029-035-036-043>045-051>053-210100-
WEST CENTRAL INDIANA

CITY           SKY/WX    TMP DP  RH WIND       PRES   REMARKS
CRAWFORDSVL +  FAIR      54  25  32 NE7       30.40F
6HR MIN TEMP:  54; 6HR MAX TEMP:  58;

GREENCASTLE +  FAIR      54  25  32 CALM      30.40F
LAFAYETTE      FAIR      54  24  31 E7        30.40F
6HR MIN TEMP:  54; 6HR MAX TEMP:  60;

TERRE HAUTE    FAIR      56  26  31 E7        30.38F
6HR MIN TEMP:  54; 6HR MAX TEMP:  63;


$$

INZ030>032-037>040-046>048-054>057-064-065-210100-
CENTRAL INDIANA

CITY           SKY/WX    TMP DP  RH WIND       PRES   REMARKS
COLUMBUS       CLEAR     57 N/A N/A NE6       30.41S
INDIANAPOLIS   MOCLDY    57  22  25 NE7       30.40F
6HR MIN TEMP:  56; 6HR MAX TEMP:  60;

-EAGLE CREEK   FAIR      58  21  24 NE5       30.39F
6HR MIN TEMP:  57; 6HR MAX TEMP:  61;

KOKOMO +       FAIR      54  28  36 E6        30.42F
6HR MIN TEMP:  54; 6HR MAX TEMP:  60;

MT COMFORT *+  FAIR      54  34  47 E6        30.41F
SHELBYVILLE    FAIR      56  27  32 E6        30.40F
6HR MIN TEMP:  56; 6HR MAX TEMP:  62;

ZIONSVILLE +   FAIR      55  26  33 NE5       30.41F
6HR MIN TEMP:  53; 6HR MAX TEMP:  58;


$$

INZ033-034-041-042-049-050-058-059-210100-
EAST CENTRAL INDIANA

CITY           SKY/WX    TMP DP  RH WIND       PRES   REMARKS
MUNCIE         FAIR      56  24  29 E6        30.41F
6HR MIN TEMP:  55; 6HR MAX TEMP:  60;

RICHMOND +     FAIR      50  27  40 NE5       30.42S

$$

INZ060-061-067>069-081>083-085>088-210100-
SOUTHWEST INDIANA

CITY           SKY/WX    TMP DP  RH WIND       PRES   REMARKS
EVANSVILLE     FAIR      60  28  29 NE7       30.36F
6HR MIN TEMP:  59; 6HR MAX TEMP:  65;

HUNTINGBURG +  FAIR      59  29  31 NE9       30.37S
6HR MIN TEMP:  58; 6HR MAX TEMP:  63;


$$

INZ062-063-066-070>080-084-089>092-210100-
SOUTH CENTRAL AND SOUTHEAST INDIANA

CITY           SKY/WX    TMP DP  RH WIND       PRES   REMARKS
BLOOMINGTON    FAIR      57  23  26 NE8       30.39S
6HR MIN TEMP:  57; 6HR MAX TEMP:  63;

FRENCH LICK *+ FAIR      59  12  15 NE7       30.38S
MADISON *+     FAIR      55  19  24 NE6       30.41R
SEYMOUR +      FAIR      59  30  33 N6        30.39S

$$





USA.gov is the U.S. government's official web portal to all federal, state and local government web resources and services.